Hourly Data Report for February 09, 2016

All times are specified in Local Standard Time (LST). Add 1 hour to adjust for Daylight Saving Time where and when it is observed.

Metadata including Station Name, Province, Latitude, Longitude, Elevation, Climate ID, WMO ID, TC ID
CHATHAM KENT
ONTARIO
Latitude: 42°18'21.000" N Longitude: 82°04'57.000" W Elevation: 196.60 m
Climate ID: 6131414 WMO ID: TC ID: YCK
Hourly Data Report for February 9, 2016
Temp Definition
°C

Dew Point Temp Definition
°C

Rel Hum Definition
%

Wind Dir Definition
10's deg
Wind Spd Definition
km/h

Visibility Definition
km

Stn Press Definition
kPa

Hmdx Definition

Wind Chill Definition

Weather Definition

00:00 Legend Double Dagger 0.5 0.4 99 24 9 4.8 97.68 Rain,Fog
01:00 Legend Double Dagger 0.8 0.2 96 27 9 16.1 97.65 LegendNANA
02:00 Legend Double Dagger 0.6 0.0 96 25 11 11.3 97.62 Rain
03:00 Legend Double Dagger 0.2 -0.7 94 25 18 14.5 97.60 LegendNANA
04:00 Legend Double Dagger -0.1 -0.8 95 26 15 12.9 97.55 -5 LegendNANA
05:00 Legend Double Dagger -0.1 -1.0 94 25 17 14.5 97.53 -5 LegendNANA
06:00 Legend Double Dagger 0.0 -0.7 95 25 22 14.5 97.55 -6 LegendNANA
07:00 Legend Double Dagger 0.0 -1.0 93 25 26 16.1 97.59 -6 LegendNANA
08:00 Legend Double Dagger -0.1 -1.1 93 25 24 12.9 97.62 -6 Snow
09:00 Legend Double Dagger -0.1 -0.9 95 26 26 11.3 97.64 -6 Snow
10:00 Legend Double Dagger -0.3 -0.6 98 31 18 1.6 97.67 -5 Snow
11:00 Legend Double Dagger -0.3 -0.9 96 30 18 4.0 97.68 -5 Snow
12:00 Legend Double Dagger -0.8 -2.2 90 30 30 16.1 97.69 -8 LegendNANA
13:00 Legend Double Dagger -1.1 -2.2 92 30 30 9.7 97.68 -8 Snow
14:00 Legend Double Dagger -0.8 -2.5 89 30 26 16.1 97.68 -7 Snow
15:00 Legend Double Dagger -1.6 -2.9 91 30 28 3.2 97.70 -8 Snow
16:00 Legend Double Dagger -1.7 -2.4 95 29 28 2.4 97.76 -8 Snow
17:00 Legend Double Dagger -2.0 -2.6 96 29 28 2.0 97.83 -9 Snow
18:00 Legend Double Dagger -2.2 -2.8 96 28 30 2.4 97.89 -9 Snow
19:00 Legend Double Dagger -2.6 -3.2 96 29 34 2.4 97.98 -10 Snow
20:00 Legend Double Dagger -2.7 -3.4 95 29 28 4.8 98.03 -10 Snow
21:00 Legend Double Dagger -2.7 -3.7 93 30 37 4.8 98.05 -11 Snow
22:00 Legend Double Dagger -3.2 -4.3 92 30 35 4.0 98.07 -11 Snow
23:00 Legend Double Dagger -3.7 -4.4 95 30 34 2.0 98.09 -12 Snow

Notes on Data Quality.

Legend
  • E = Estimated
  • M = Missing
  • NA = Not Available
  • ‡ = Partner data that is not subject to review by the National Climate Archives